Zurück zum Katalog

STARLINK-35277

AktivKommunikationVLEO
NORAD 65832·PAYLOAD·🇺🇸 United States

Gestartet Sep 29, 2025 von Vandenberg Space Force Base

Loading…

Nächste Überflüge (nächste 24 Stunden)

TLE

AktuellSource: CelesTrak SupGP

Epoche: Sep 14, 2026, 15:19 UTC

1 65832C 25221K   26257.63868056 -.00003219  00000+0 -95138-4 0  2573
2 65832  53.1574 287.2819 0001253  78.6831 169.3547 15.34383410    10

Verfolge STARLINK-35277 in Echtzeit mit AllMySat

Download on the App Store